When you browse on this site, cookies collect data to enhance your experience and personalize the content and advertising you see.
Visit our Privacy Policy to learn more. By continuing to use the site, you agree to this use of cookies and data.
  • In Sweden
  • List of Countries
  • For 7 days
  • Water Temperature
  • Satellite Maps
  • Weather Map
  • Weather Widgets
  • user-avatar
    Login

    Hourly Weather Workington

    Today, 16 June, Sunday

    Time Temperature Precipitation Wind Pressure Humidity
    00:00 +7°C° 0 mm 6 mps 757 mmHg 91%
    01:00 +7°C° 0.2 mm 6 mps 757 mmHg 91%
    02:00 +7°C° 0.2 mm 6 mps 757 mmHg 92%
    03:00 +7°C° 0.2 mm 6 mps 756 mmHg 92%
    04:00 +8°C° 0.2 mm 6 mps 757 mmHg 91%
    05:00 +9°C° 0.2 mm 6 mps 757 mmHg 90%
    06:00 +10°C° 0 mm 6 mps 757 mmHg 91%
    07:00 +10°C° 0.2 mm 6 mps 757 mmHg 88%
    08:00 +11°C° 0.2 mm 7 mps 757 mmHg 86%
    09:00 +11°C° 0.2 mm 7 mps 757 mmHg 83%
    10:00 +12°C° 0 mm 7 mps 757 mmHg 80%
    11:00 +14°C° 0 mm 6 mps 757 mmHg 76%
    12:00 +15°C° 0 mm 5 mps 757 mmHg 74%
    13:00 +15°C° 0.1 mm 5 mps 756 mmHg 77%
    14:00 +14°C° 0.1 mm 5 mps 756 mmHg 79%
    15:00 +14°C° 0.1 mm 4 mps 756 mmHg 82%
    16:00 +14°C° 0.1 mm 6 mps 756 mmHg 83%
    17:00 +14°C° 0.1 mm 7 mps 756 mmHg 83%
    18:00 +12°C° 0.1 mm 8 mps 756 mmHg 84%
    19:00 +12°C° 0.5 mm 8 mps 756 mmHg 88%
    20:00 +12°C° 0.5 mm 8 mps 756 mmHg 92%
    21:00 +11°C° 0.5 mm 9 mps 755 mmHg 95%
    22:00 +11°C° 0.6 mm 9 mps 756 mmHg 95%
    23:00 +11°C° 0.6 mm 10 mps 756 mmHg 95%

    Tomorrow, 17 June, Monday

    Time Temperature Precipitation Wind Pressure Humidity
    00:00 +11°C° 0.6 mm 11 mps 756 mmHg 95%
    01:00 +11°C° 0.4 mm 10 mps 756 mmHg 95%
    02:00 +11°C° 0.4 mm 9 mps 756 mmHg 95%
    03:00 +10°C° 0.4 mm 8 mps 756 mmHg 95%
    04:00 +11°C° 0.1 mm 7 mps 756 mmHg 94%
    05:00 +11°C° 0.1 mm 7 mps 756 mmHg 94%
    06:00 +11°C° 0.1 mm 7 mps 756 mmHg 93%
    07:00 +11°C° 0.1 mm 8 mps 757 mmHg 91%
    08:00 +12°C° 0.1 mm 9 mps 757 mmHg 88%
    09:00 +12°C° 0.1 mm 9 mps 757 mmHg 85%
    10:00 +13°C° 0.1 mm 10 mps 757 mmHg 83%
    11:00 +13°C° 0.1 mm 10 mps 757 mmHg 81%
    12:00 +14°C° 0.1 mm 10 mps 757 mmHg 79%
    13:00 +14°C° 0 mm 11 mps 757 mmHg 79%
    14:00 +14°C° 0 mm 11 mps 757 mmHg 80%
    15:00 +14°C° 0 mm 11 mps 757 mmHg 80%
    16:00 +13°C° 0 mm 11 mps 757 mmHg 81%
    17:00 +13°C° 0 mm 10 mps 757 mmHg 83%
    18:00 +12°C° 0 mm 10 mps 757 mmHg 85%
    19:00 +12°C° 0 mm 9 mps 757 mmHg 88%
    20:00 +11°C° 0 mm 8 mps 757 mmHg 91%
    21:00 +10°C° 0 mm 7 mps 758 mmHg 94%
    22:00 +11°C° 0 mm 7 mps 758 mmHg 94%
    23:00 +11°C° 0 mm 7 mps 758 mmHg 94%

    Day after tomorrow, 18 June, Tuesday

    Time Temperature Precipitation Wind Pressure Humidity
    00:00 +11°C° 0 mm 6 mps 758 mmHg 95%
    01:00 +10°C° 0 mm 6 mps 758 mmHg 95%
    02:00 +10°C° 0 mm 6 mps 758 mmHg 95%
    03:00 +10°C° 0 mm 6 mps 758 mmHg 96%
    04:00 +10°C° 0 mm 6 mps 758 mmHg 94%
    05:00 +11°C° 0 mm 6 mps 758 mmHg 93%
    06:00 +11°C° 0 mm 6 mps 758 mmHg 92%
    07:00 +13°C° 0 mm 6 mps 758 mmHg 89%
    08:00 +12°C° 0 mm 7 mps 758 mmHg 85%
    09:00 +14°C° 0 mm 7 mps 758 mmHg 82%
    10:00 +14°C° 0 mm 6 mps 758 mmHg 80%
    11:00 +14°C° 0 mm 6 mps 758 mmHg 78%
    12:00 +14°C° 0 mm 6 mps 758 mmHg 77%
    13:00 +15°C° 0 mm 6 mps 758 mmHg 75%
    14:00 +15°C° 0 mm 5 mps 758 mmHg 74%
    15:00 +15°C° 0 mm 5 mps 757 mmHg 72%
    16:00 +15°C° 0 mm 4 mps 757 mmHg 73%
    17:00 +14°C° 0 mm 4 mps 757 mmHg 74%
    18:00 +14°C° 0 mm 3 mps 757 mmHg 74%
    19:00 +13°C° 0 mm 3 mps 757 mmHg 75%
    20:00 +13°C° 0 mm 2 mps 757 mmHg 76%
    21:00 +12°C° 0 mm 2 mps 757 mmHg 77%
    22:00 +12°C° 0 mm 2 mps 757 mmHg 76%
    23:00 +12°C° 0 mm 2 mps 757 mmHg 76%

    19 June, Wednesday

    Time Temperature Precipitation Wind Pressure Humidity
    00:00 +10°C° 0 mm 2 mps 756 mmHg 75%
    01:00 +10°C° 0 mm 2 mps 756 mmHg 75%
    02:00 +11°C° 0 mm 1 mps 756 mmHg 74%
    03:00 +11°C° 0 mm 1 mps 756 mmHg 73%
    04:00 +12°C° 0 mm 1 mps 756 mmHg 74%
    05:00 +13°C° 0 mm 1 mps 755 mmHg 75%
    06:00 +13°C° 0 mm 1 mps 755 mmHg 76%
    07:00 +14°C° 0 mm 1 mps 755 mmHg 74%
    08:00 +15°C° 0 mm 1 mps 755 mmHg 72%
    09:00 +16°C° 0 mm 1 mps 755 mmHg 70%
    10:00 +16°C° 0 mm 1 mps 755 mmHg 70%
    11:00 +17°C° 0 mm 2 mps 754 mmHg 71%
    12:00 +17°C° 0 mm 2 mps 754 mmHg 72%
    13:00 +17°C° 0.1 mm 3 mps 754 mmHg 74%
    14:00 +17°C° 0.1 mm 3 mps 754 mmHg 76%
    15:00 +15°C° 0.1 mm 4 mps 753 mmHg 79%
    16:00 +15°C° 0 mm 4 mps 753 mmHg 80%
    17:00 +15°C° 0 mm 4 mps 753 mmHg 80%
    18:00 +14°C° 0 mm 5 mps 753 mmHg 81%
    19:00 +13°C° 0 mm 4 mps 754 mmHg 85%
    20:00 +12°C° 0 mm 4 mps 754 mmHg 89%
    21:00 +11°C° 0 mm 4 mps 754 mmHg 92%
    22:00 +11°C° 0.1 mm 4 mps 754 mmHg 93%
    23:00 +11°C° 0.1 mm 4 mps 754 mmHg 93%

    20 June, Thursday

    Time Temperature Precipitation Wind Pressure Humidity
    00:00 +10°C° 0.1 mm 4 mps 754 mmHg 94%
    01:00 +10°C° 0.2 mm 4 mps 754 mmHg 94%
    02:00 +10°C° 0.2 mm 4 mps 754 mmHg 94%
    03:00 +10°C° 0.2 mm 4 mps 754 mmHg 94%
    04:00 +10°C° 0.2 mm 4 mps 754 mmHg 93%
    05:00 +10°C° 0.2 mm 5 mps 754 mmHg 92%
    06:00 +10°C° 0.2 mm 5 mps 754 mmHg 91%
    07:00 +10°C° 0.3 mm 5 mps 754 mmHg 90%
    08:00 +10°C° 0.3 mm 5 mps 755 mmHg 89%
    09:00 +12°C° 0.3 mm 5 mps 755 mmHg 88%
    10:00 +11°C° 0.3 mm 6 mps 755 mmHg 86%
    11:00 +13°C° 0.3 mm 6 mps 755 mmHg 84%
    12:00 +12°C° 0.3 mm 7 mps 755 mmHg 82%
    13:00 +12°C° 0 mm 7 mps 755 mmHg 79%
    14:00 +14°C° 0 mm 7 mps 755 mmHg 76%
    15:00 +14°C° 0 mm 7 mps 755 mmHg 73%
    16:00 +14°C° 0 mm 7 mps 755 mmHg 75%
    17:00 +12°C° 0 mm 7 mps 755 mmHg 78%
    18:00 +13°C° 0 mm 6 mps 755 mmHg 80%
    19:00 +12°C° 0.1 mm 5 mps 755 mmHg 85%
    20:00 +11°C° 0.1 mm 4 mps 755 mmHg 89%
    21:00 +10°C° 0.1 mm 3 mps 756 mmHg 93%
    22:00 +10°C° 0.1 mm 3 mps 756 mmHg 93%
    23:00 +10°C° 0.1 mm 3 mps 756 mmHg 93%

    21 June, Friday

    Time Temperature Precipitation Wind Pressure Humidity
    00:00 +10°C° 0.1 mm 4 mps 756 mmHg 93%
    01:00 +8°C° 0 mm 4 mps 756 mmHg 93%
    02:00 +8°C° 0 mm 4 mps 757 mmHg 93%
    03:00 +7°C° 0 mm 4 mps 757 mmHg 93%
    04:00 +8°C° 0 mm 4 mps 757 mmHg 91%
    05:00 +9°C° 0 mm 5 mps 757 mmHg 90%
    06:00 +9°C° 0 mm 5 mps 757 mmHg 88%
    07:00 +9°C° 0 mm 5 mps 758 mmHg 88%
    08:00 +10°C° 0 mm 5 mps 758 mmHg 88%
    09:00 +10°C° 0 mm 5 mps 758 mmHg 87%
    10:00 +12°C° 0.2 mm 5 mps 759 mmHg 85%
    11:00 +11°C° 0.2 mm 6 mps 759 mmHg 83%
    12:00 +13°C° 0.2 mm 6 mps 759 mmHg 81%
    13:00 +12°C° 0 mm 7 mps 759 mmHg 77%
    14:00 +12°C° 0 mm 7 mps 760 mmHg 72%
    15:00 +12°C° 0 mm 7 mps 760 mmHg 68%
    16:00 +13°C° 0 mm 6 mps 760 mmHg 70%
    17:00 +13°C° 0 mm 5 mps 761 mmHg 73%
    18:00 +12°C° 0 mm 5 mps 761 mmHg 75%
    19:00 +11°C° 0 mm 4 mps 761 mmHg 78%
    20:00 +10°C° 0 mm 3 mps 762 mmHg 81%
    21:00 +9°C° 0 mm 2 mps 762 mmHg 84%
    22:00 +8°C° 0 mm 2 mps 763 mmHg 84%
    23:00 +9°C° 0 mm 1 mps 763 mmHg 83%
    Show more